sat.trackr.live / text

‹ back to catalog

STARLINK-2497

NORAD 48455 · 2021-040AD

PAYLOAD ACTIVE UNKNOWN

§ Identity

Operator
Country
US
Launch date
2021-05-09
Launch site
AFETR
Launch vehicle
Mass (kg)
RCS (m²)

Purposes: comms

External: N2YO · Heavens-Above · Gunter

§ Orbital elements

Epoch: 2026-09-12T17:46:10.726752Z

Period
94.01 min
Inclination
53.1597°
Eccentricity
0.0001365
Mean motion
15.31695770 rev/d
Perigee alt
469.8 km
Apogee alt
471.7 km
Semi-major
6,848.9 km
B*
5.7514e-5
RAAN
27.8935°
Arg perigee
91.4844°
Mean anomaly
268.6314°
Rev number
29,533

§ Raw data

STARLINK-24971 48455U 21040AD  26255.74040193  .00001420  00000+0  57514-4 0  99932 48455  53.1597  27.8935 0001365  91.4844 268.6314 15.31695770295333

JSON: /api/v1/satellites/48455 · /tle

For live sub-satellite position, see the globe view (requires WebGL).

§ Visibility from observer

Set your observer location to see the next 7 days of passes ≥ 10°. The values pass through the URL so the page stays shareable.

No JS? Fill the form by hand. The geolocation button needs JavaScript.